Alpena — WAV4647 — position and weather

sailwx.info

Track history (hours):
 
Tides and Currents Weather Stations Pressure Air Temp Water Temp Dewpoint Dewpoint Depression Visibility Wind Speed Wind Dir Waves Ship Positions

Alpena

Owner: INLAND LAKES MANAGEMENT, Muskegon, MI. More information available from US FCC via Universal Licensing System and Coast Guard Vessel Documentation Center.

Last reported at 2018-Jun-15 22:06 UTC. Time now 2018-Jun-18 09:31 UTC.
Position N 45°21' W 083°25'.

Length 154 m; draft 7.3 m.

Type: Cargo ship. MMSI: 366893910.

Date/timePositionNaut miles runAvg speedWind from/ knotsBaromVisibWave heightAir tempDewpointWater temp
2018-Jun-15 22:06N 45°21' W 083°25'112.8
2018-Jun-15 22:00N 45°22' W 083°26'612.4
2018-Jun-15 21:30N 45°25' W 083°34'612.5
2018-Jun-15 21:00N 45°28' W 083°42'612.5
2018-Jun-15 20:30N 45°31' W 083°50'712.7
2018-Jun-15 19:55N 45°34' W 083°59'1212.6
2018-Jun-15 18:58N 45°40' W 084°14'511.5
2018-Jun-15 18:30N 45°41' W 084°22'612.0
2018-Jun-15 18:01N 45°43' W 084°30'612.4
2018-Jun-15 17:31N 45°46' W 084°37'612.6
2018-Jun-15 17:01N 45°49' W 084°45'612.4
2018-Jun-15 16:30N 45°50' W 084°54'612.5
2018-Jun-15 16:01N 45°51' W 085°03'612.5
2018-Jun-15 15:30N 45°52' W 085°12'612.7
2018-Jun-15 15:00N 45°52' W 085°21'612.6
2018-Jun-15 14:30N 45°53' W 085°30'612.1
2018-Jun-15 14:00N 45°53' W 085°38'612.9
2018-Jun-15 13:31N 45°50' W 085°46'612.9
2018-Jun-15 13:01N 45°46' W 085°54'612.9
2018-Jun-15 12:30N 45°43' W 086°02'613.0
2018-Jun-15 12:01N 45°40' W 086°11'712.9
2018-Jun-15 11:30N 45°37' W 086°19'45 0.9
2018-Jun-13 12:19N 45°53' W 085°19'612.1
2018-Jun-13 11:50N 45°52' W 085°11'412.2
2018-Jun-13 11:30N 45°51' W 085°05'612.1
2018-Jun-13 10:59N 45°50' W 084°56'612.1
2018-Jun-13 10:28N 45°49' W 084°47'4311.9
2018-Jun-13 06:52N 45°32' W 083°51'412.3
2018-Jun-13 06:30N 45°31' W 083°45'  
Track history (hours):
 
Tides and Currents Weather Stations Pressure Air Temp Water Temp Dewpoint Dewpoint Depression Visibility Wind Speed Wind Dir Waves Ship Positions

Alpena

Owner: INLAND LAKES MANAGEMENT, Muskegon, MI. More information available from US FCC via Universal Licensing System and Coast Guard Vessel Documentation Center.

Last reported at 2018-Jun-15 22:06 UTC. Time now 2018-Jun-18 09:31 UTC.
Position N 45°21' W 083°25'.

Length 154 m; draft 7.3 m.

Type: Cargo ship. MMSI: 366893910.

Date/timePositionNaut miles runAvg speedWind from/ knotsBaromVisibWave heightAir tempDewpointWater temp
2018-Jun-15 22:06N 45°21' W 083°25'112.8
2018-Jun-15 22:00N 45°22' W 083°26'612.4
2018-Jun-15 21:30N 45°25' W 083°34'612.5
2018-Jun-15 21:00N 45°28' W 083°42'612.5
2018-Jun-15 20:30N 45°31' W 083°50'712.7
2018-Jun-15 19:55N 45°34' W 083°59'1212.6
2018-Jun-15 18:58N 45°40' W 084°14'511.5
2018-Jun-15 18:30N 45°41' W 084°22'612.0
2018-Jun-15 18:01N 45°43' W 084°30'612.4
2018-Jun-15 17:31N 45°46' W 084°37'612.6
2018-Jun-15 17:01N 45°49' W 084°45'612.4
2018-Jun-15 16:30N 45°50' W 084°54'612.5
2018-Jun-15 16:01N 45°51' W 085°03'612.5
2018-Jun-15 15:30N 45°52' W 085°12'612.7
2018-Jun-15 15:00N 45°52' W 085°21'612.6
2018-Jun-15 14:30N 45°53' W 085°30'612.1
2018-Jun-15 14:00N 45°53' W 085°38'612.9
2018-Jun-15 13:31N 45°50' W 085°46'612.9
2018-Jun-15 13:01N 45°46' W 085°54'612.9
2018-Jun-15 12:30N 45°43' W 086°02'613.0
2018-Jun-15 12:01N 45°40' W 086°11'712.9
2018-Jun-15 11:30N 45°37' W 086°19'45 0.9
2018-Jun-13 12:19N 45°53' W 085°19'612.1
2018-Jun-13 11:50N 45°52' W 085°11'412.2
2018-Jun-13 11:30N 45°51' W 085°05'612.1
2018-Jun-13 10:59N 45°50' W 084°56'612.1
2018-Jun-13 10:28N 45°49' W 084°47'4311.9
2018-Jun-13 06:52N 45°32' W 083°51'412.3
2018-Jun-13 06:30N 45°31' W 083°45'  

Dump ship's entire track history